Location: Dodgeville
(42.9600°N, 90.1300°W)
Time: 09:09:40
(UTC-06:00)

Uosat F - Visible Passes

Search period start: 07 February 2016 00:00
Search period end: 17 February 2016 00:00
Orbit: 751 x 761 km, 98.8° (Epoch: 07 February)

Date Brightness Start Highest point End Pass type
(mag) Time Alt. Az. Time Alt. Az. Time Alt. Az.
07 Feb 12.9 04:58:29 10° NE 05:02:58 31° E 05:07:25 10° SSE visible
07 Feb 11.8 06:37:12 10° N 06:41:41 33° WNW 06:46:09 10° SW visible
07 Feb 14.0 17:52:26 10° SW 17:56:10 21° W 17:59:56 10° NW visible
08 Feb 14.1 04:20:46 10° ENE 04:23:11 13° E 04:25:35 10° ESE visible
08 Feb 11.0 05:57:25 10° N 06:02:29 74° WNW 06:07:31 10° SSW visible
09 Feb 12.1 05:18:09 10° NNE 05:23:03 47° E 05:27:54 10° S visible
09 Feb 14.4 18:13:56 10° WSW 18:16:23 13° W 18:18:49 10° WNW visible
10 Feb 13.6 04:39:38 10° NE 04:43:23 21° E 04:47:08 10° SE visible
10 Feb 11.3 06:17:32 10° N 06:22:24 49° WNW 06:27:15 10° SW visible
11 Feb 11.3 05:38:00 10° NNE 05:43:05 73° ESE 05:48:07 10° S visible
12 Feb 13.0 04:59:03 10° NE 05:03:32 31° E 05:08:00 10° SSE visible
12 Feb 14.0 17:52:59 10° SW 17:56:44 21° W 18:00:31 10° NW visible
13 Feb 14.2 04:21:21 10° ENE 04:23:45 13° E 04:26:09 10° ESE visible
13 Feb 11.0 05:57:59 10° N 06:03:03 75° WNW 06:08:05 10° SSW visible
14 Feb 12.1 05:18:44 10° NNE 05:23:37 47° E 05:28:29 10° S visible
14 Feb 14.4 18:14:28 10° WSW 18:16:56 14° W 18:19:25 10° WNW visible
15 Feb 13.6 04:40:12 10° NE 04:43:57 21° E 04:47:41 10° SE visible
15 Feb 11.3 06:18:05 10° N 06:22:59 49° WNW 06:27:49 10° SW visible
16 Feb 11.3 05:38:34 10° NNE 05:43:39 73° ESE 05:48:41 10° S visible
